RH
80 78 77 72 71 72 71 69 70 86 82 61 63 65 60 63 63 66 62 59 57 50 56 66 73 76 77 78 67 74 86 82 74 71 72 73 70 79
84 89 86 79 75 75 75 74 72 72 87 64 63 64 64 61 64 69 67 66 66 61 54 51 60 70 74 76 78 74 74 87 83 78 74 76 77 58
80 84 88 81 83 82 80 80 79 76 80 77 71 67 70 72 72 69 73 73 70 68 66 65 61 57 63 68 72 79 79 72 85 84 80 77 78 79
77 71 84 87 88 89 86 82 83 80 80 81 75 72 70 68 68 69 73 72 73 71 72 72 70 68 59 60 63 70 77 81 75 74 82 82 80 81
78 78 83 85 88 88 88 88 86 82 81 84 82 78 71 68 72 74 70 63 67 66 70 70 70 71 71 62 60 64 71 76 79 80 75 81 85 80
88 85 83 84 84 85 88 87 89 87 86 86 86 82 79 72 72 73 71 69 69 76 77 76 76 74 72 69 64 64 68 70 73 78 79 75 78 86
91 87 84 80 81 81 83 86 86 85 89 91 89 87 84 84 76 65 73 74 77 79 77 77 79 77 74 74 75 67 65 68 68 70 71 75 67 73
87 92 86 82 80 80 83 83 83 83 85 91 91 91 80 76 67 67 79 87 92 83 80 81 85 85 84 79 77 78 71 67 70 69 71 69 72 65
94 93 93 91 87 83 82 84 84 85 88 82 76 70 72 63 68 83 91 92 90 84 90 88 84 87 84 83 85 83 81 77 73 70 72 68 68 74
89 86 82 80 84 91 86 84 81 78 77 80 85 74 66 67 85 86 86 86 96 97 92 96 82 86 85 86 79 79 81 80 80 73 72 71 68 68
87 86 87 90 88 94 97 93 87 81 77 79 80 79 77 80 82 89 98 99 99 97 84 95 84 95 91 84 82 83 82 76 72 68 70 66 64 68
100 95 93 97 95 99 99 97 98 92 91 88 92 94 90 86 82 88 94 100 100 100 97 100 91 97 92 79 78 78 85 83 79 79 79 73 69 70
100 100 100 100 100 100 100 100 100 99 94 93 83 85 82 83 88 87 88 94 100 99 97 100 99 94 96 88 82 78 77 86 84 78 73 73 73 71
100 99 99 100 100 99 100 100 100 98 99 100 98 97 92 92 94 95 95 96 94 98 96 100 100 99 98 93 91 87 84 79 73 73 74 71 72 78
100 99 94 91 90 92 96 97 100 99 94 92 99 99 97 87 85 93 98 99 100 99 100 100 100 100 100 99 92 84 84 78 74 73 72 71 84 99
94 91 87 82 78 82 87 92 95 97 88 97 99 98 99 100 94 88 98 95 98 98 99 100 100 100 100 100 100 99 91 85 77 75 74 75 85 88
99 92 89 88 91 91 98 98 97 99 100 96 96 99 99 99 98 97 96 96 100 99 98 99 100 100 100 100 100 98 98 97 88 85 82 75 79 92
99 98 96 94 97 99 100 100 99 100 100 100 100 100 99 100 100 100 100 100 100 99 99 99 100 100 100 98 99 99 100 99 94 93 86 90 81 90
99 99 99 99 100 99 99 99 100 100 100 100 100 99 100 100 100 100 100 100 100 99 98 100 100 100 100 99 93 89 99 98 98 100 95 96 90 78
100 100 100 99 98 96 98 99 99 98 99 99 99 99 99 100 100 99 100 100 100 100 100 100 100 100 100 98 96 91 90 96 100 100 99 100 99 99
98 100 100 100 97 94 97 99 100 99 99 99 99 99 99 100 99 99 100 100 100 100 100 100 94 96 100 100 100 98 93 97 98 99 99 100 100 100
95 96 98 99 100 100 100 100 100 100 100 99 99 99 99 100 99 99 100 100 100 100 100 99 100 100 100 100 99 100 98 94 94 100 100 100 97 99
99 99 99 96 96 96 96 99 100 100 99 99 100 100 99 100 100 100 100 99 100 100 100 100 99 100 100 100 100 100 100 99 100 100 99 100 100 100
Wind_Speed
21 20 21 19 14 13 13 11 8 2 2 7 8 11 6 7 7 7 8 8 7 7 9 12 12 13 11 11 11 12 11 10 6 6 6 4 5 7
19 17 19 21 20 19 17 15 14 12 3 4 8 11 10 8 9 10 10 12 11 11 10 11 12 14 14 13 13 13 15 14 13 10 9 7 6 6
19 19 18 17 19 21 21 18 18 17 14 13 12 8 10 8 10 10 11 12 13 12 11 11 12 14 15 15 15 15 16 16 16 15 14 11 9 8
20 19 19 16 16 17 20 19 18 19 19 17 14 11 12 11 12 10 11 14 16 15 15 15 16 15 16 17 17 17 17 18 18 18 18 16 14 12
19 20 18 17 17 18 19 18 19 18 19 19 17 15 12 11 11 11 14 15 15 15 15 15 15 17 18 19 19 19 19 19 20 20 20 20 19 17
17 16 18 17 18 19 21 21 20 19 19 20 19 18 16 15 14 16 18 17 18 16 17 17 18 17 18 19 21 22 21 20 21 21 21 21 22 22
19 18 18 20 19 19 19 20 20 20 19 19 19 18 18 17 17 17 16 17 16 17 23 21 18 16 17 19 21 23 23 23 22 22 21 22 22 23
15 15 15 18 20 21 21 19 19 20 20 21 20 20 22 22 19 19 16 15 7 10 11 14 14 22 21 22 20 18 21 23 23 23 22 22 23 23
17 16 14 13 19 21 21 22 22 22 21 19 21 22 21 20 18 13 15 16 19 20 18 21 24 27 26 23 22 22 21 22 22 22 22 22 23 23
16 17 18 20 18 20 22 21 22 22 24 24 23 22 21 20 17 18 17 19 18 18 19 17 26 30 25 21 21 18 19 20 22 23 23 23 22 22
17 18 17 18 18 19 17 19 20 19 18 19 21 22 22 20 20 21 22 20 15 19 22 19 25 26 27 26 25 23 22 20 19 19 20 21 21 22
13 15 18 18 13 13 17 18 20 20 17 17 17 18 20 24 24 24 24 22 19 9 20 16 21 17 7 14 16 17 21 22 20 19 20 21 21 23
3 5 7 10 14 16 17 17 16 16 16 18 20 22 24 26 27 27 25 25 24 27 25 17 11 14 11 11 19 16 12 16 18 19 19 20 21 23
3 6 9 8 11 15 15 16 17 16 17 20 22 24 27 29 27 26 22 22 22 24 25 25 16 18 20 15 15 17 16 16 18 19 18 16 17 19
4 6 9 12 14 18 19 18 17 19 21 22 21 22 26 27 26 24 22 21 23 23 22 24 28 29 29 26 15 18 19 17 19 19 19 20 18 17
10 11 13 13 15 17 16 18 18 21 24 24 24 26 26 26 26 26 26 27 27 28 26 25 27 29 32 31 29 28 24 13 13 14 16 19 19 19
15 15 14 13 13 14 13 14 14 15 19 22 24 27 27 27 27 26 26 25 28 30 30 28 27 27 30 31 30 33 34 31 29 24 21 21 23 23
15 13 13 12 12 9 11 12 12 11 11 14 18 23 25 25 26 27 27 27 29 29 32 32 29 24 26 29 32 35 32 34 35 29 27 26 29 28
12 12 13 6 6 11 13 15 16 15 15 16 16 16 16 19 22 25 26 24 27 27 31 32 30 22 11 8 22 22 33 39 37 31 33 33 33 33
8 6 6 8 9 11 13 15 15 15 16 18 18 17 17 17 19 22 23 24 25 27 27 29 27 27 23 16 12 18 21 29 35 36 36 35 35 31
11 10 10 11 12 13 14 15 14 16 15 18 19 19 18 17 19 20 23 24 26 24 24 26 31 28 27 27 18 23 32 30 32 36 34 30 20 20
11 12 12 12 13 12 13 15 15 16 18 19 19 17 17 16 17 18 20 21 23 24 29 30 28 24 22 25 23 23 27 30 29 35 33 33 20 12
9 10 12 12 12 13 13 14 14 14 13 14 15 14 16 18 19 18 18 20 22 24 25 26 26 24 26 29 29 26 25 29 28 28 35 34 35 38
Wind_Direction
214 219 225 230 226 221 223 226 216 201 271 242 201 216 239 271 276 300 299 294 296 294 269 259 256 260 265 265 262 256 251 256 263 270 297 294 257 240
224 231 233 234 231 228 228 226 230 230 200 241 224 219 236 263 282 300 295 287 284 286 287 276 266 262 265 267 263 259 254 255 257 261 262 274 285 269
217 227 237 240 235 233 232 234 240 236 234 253 268 255 219 248 279 292 296 296 291 283 279 281 282 274 268 268 264 259 255 254 255 255 255 259 266 275
216 233 229 237 239 234 234 241 234 235 239 247 258 251 249 261 276 278 273 282 288 288 286 283 279 277 273 268 266 261 257 254 254 254 252 253 255 259
222 222 231 230 228 222 225 229 239 237 240 243 249 256 255 268 244 258 276 286 286 292 293 292 288 282 275 271 267 264 259 256 256 255 253 250 249 251
220 224 230 234 233 235 232 238 230 232 239 244 245 252 255 257 265 270 273 281 286 287 287 292 293 289 285 275 267 264 262 259 259 258 256 251 247 247
232 231 236 238 240 241 241 236 237 243 238 239 236 244 257 260 264 279 281 290 284 280 287 286 287 292 299 298 277 265 262 262 260 259 258 255 249 246
230 229 242 247 246 243 240 243 242 242 236 233 235 247 258 263 280 278 272 266 296 293 278 280 281 295 295 299 296 282 268 263 263 260 259 257 252 247
234 244 249 250 249 248 245 242 242 244 248 254 254 260 266 275 279 263 256 261 275 281 277 286 301 298 299 295 288 283 276 263 256 254 254 254 252 249
241 246 251 253 256 251 253 245 241 241 244 249 256 264 272 272 263 271 273 279 275 274 271 277 297 296 299 291 292 286 279 270 258 258 255 254 253 253
243 243 246 254 254 248 243 244 247 247 250 259 264 267 272 268 267 265 265 268 269 269 278 266 288 287 289 294 291 280 274 268 262 259 254 252 255 255
247 248 245 248 251 246 245 242 245 249 254 264 266 269 273 273 267 265 266 255 257 255 271 237 275 270 282 279 287 281 266 257 257 254 256 260 259 255
227 250 254 242 243 253 260 256 247 254 254 255 264 270 273 272 269 271 269 260 250 253 267 256 236 249 233 271 286 287 272 259 256 256 261 262 259 257
313 267 264 258 253 254 255 257 259 258 259 263 269 270 267 265 269 277 274 270 268 267 276 270 257 256 252 252 262 271 262 259 260 261 259 255 255 252
339 295 289 275 280 279 273 268 264 261 261 263 263 255 260 271 276 271 273 281 284 277 277 269 266 266 258 252 254 256 262 259 259 261 260 260 259 254
306 297 294 291 285 288 287 276 269 262 261 263 264 269 274 270 264 270 271 277 277 274 275 275 264 261 259 258 256 256 258 246 260 255 264 259 252 248
312 300 303 302 293 292 296 289 286 274 267 265 266 269 271 271 269 270 269 274 270 271 275 280 272 261 258 257 255 256 259 255 255 255 244 253 254 252
299 295 295 298 301 305 301 295 284 283 290 285 275 267 267 271 273 276 273 270 264 270 271 277 274 265 259 258 254 255 256 256 256 250 246 243 248 252
278 278 282 278 302 305 307 308 310 304 301 294 294 291 290 289 280 276 277 276 270 272 273 273 269 258 229 251 265 260 250 255 251 246 244 241 246 255
20 359 337 319 312 311 310 309 309 307 306 307 304 300 296 297 295 291 283 277 272 275 274 274 263 256 233 239 251 269 268 254 252 247 246 246 247 251
346 348 335 323 315 309 307 304 302 304 309 307 308 307 305 305 300 298 293 286 283 275 264 263 270 277 274 265 261 259 266 262 259 252 249 238 226 233
347 342 336 328 324 320 317 312 311 309 302 301 302 306 307 304 305 302 297 288 282 274 271 280 281 279 260 241 244 252 264 270 261 250 242 245 234 212
338 334 331 328 325 324 320 320 318 314 316 314 315 314 313 313 306 301 296 291 287 282 277 279 283 275 260 251 251 256 256 262 260 242 241 238 241 246